Regional Weather Roundup
Issued by NWS

Home | Current Version | Previous Version | Graphics & Text | Print | Product List | Glossary Off
Versions: 1 2 3 4 5 6 7 8 9 10 11 12 13 14 15 16 17 18 19 20 21 22 23 24 25 26 27 28 29 30 31 32 33 34 35 36 37 38 39 40 41 42 43 44 45 46 47 48 49 50

000
ASUS43 KMKX 181000
RWRWI

WISCONSIN REGIONAL WEATHER ROUNDUP
NATIONAL WEATHER SERVICE MILWAUKEE/SULLIVAN WI
400 AM CST THU JAN 18 2018

NOTE: "FAIR" INDICATES FEW OR NO CLOUDS BELOW 12,000 FEET WITH NO
SIGNIFICANT WEATHER AND/OR OBSTRUCTIONS TO VISIBILITY.

WIZ001-002-006>008-014>016-023>028-181100-
NORTHWEST WISCONSIN

CITY           SKY/WX    TMP DP  RH WIND       PRES   REMARKS
SUPERIOR ARPT  FAIR      25  19  77 SW6       29.82S WCI  18
ASHLAND        NOT AVBL
HAYWARD        FAIR      20  15  81 SW7       29.84F WCI  11
SIREN          FAIR      26  19  74 SW12      29.88F WCI  15
CUMBERLAND     FAIR      21  16  79 SW13      29.90F WCI   9
RICE LAKE      FAIR      21  16  81 CALM      29.93F
CHETEK         FAIR      19  15  84 SW3       29.93F
LADYSMITH      FAIR      17  14  88 SE6       29.91F WCI   8
EAU CLAIRE     NOT AVBL
MENOMONIE      FAIR      22  15  77 SW5       29.97F WCI  15
NEW RICHMOND   FAIR      20  15  79 SW8       29.95F WCI  11
OSCEOLA        FAIR      24  18  77 S7        29.96F WCI  16
$$

WIZ003>005-009-010-017-018-181100-
NORTH CENTRAL WISCONSIN

CITY           SKY/WX    TMP DP  RH WIND       PRES   REMARKS
MANITOWISH WTR FAIR      17  14  90 SW6       29.83S WCI   8
ARBOR VITAE    FAIR      22  18  84 W6        29.83F WCI  14
WOODRUFF       FAIR      22  18  84 W6        29.83F WCI  14
RHINELANDER    FAIR      17  14  88 W10       29.85F WCI   5
EAGLE RIVER    FAIR      12   8  85 W7        29.82F WCI   1
LAND O LAKES   FAIR      19  15  84 W6        29.83S WCI  11
PHILLIPS       FAIR      19  15  86 SW6       29.86F WCI  10
TOMAHAWK       FAIR      19  15  84 CALM      29.88F
MEDFORD        FAIR      18  13  81 SW9       29.91F WCI   7
MERRILL        FAIR      19  14  81 W7        29.91F WCI  10
$$

WIZ029-030-035-036-043>047-181100-
CENTRAL WISCONSIN

CITY           SKY/WX    TMP DP  RH WIND       PRES   REMARKS
WAUSAU         FAIR      19  14  81 SW7       29.91F WCI  10
MOSINEE        FAIR      18  14  86 SW9       29.94F WCI   6
MARSHFIELD     FAIR      18  13  80 W10       29.93F WCI   6
STEVENS POINT  FAIR      19  13  79 W9        29.96F WCI   7
WAUPACA        FAIR      23  15  69 SW9       29.98S WCI  13
WAUTOMA        FAIR      18  12  77 SW6       30.00F WCI  10
WISC RAPIDS    FAIR      18  10  71 SW7       29.98F WCI   9
CAMP DOUGLAS   FAIR      20  13  74 SW9       30.00F WCI   9
$$

WIZ011>013-019>022-031-037>040-048>050-181100-
NORTHEAST WISCONSIN

CITY           SKY/WX    TMP DP  RH WIND       PRES   REMARKS
ANTIGO         FAIR      17  13  84 W10       29.88F WCI   5
SHAWANO        FAIR      23  15  71 SW6       29.93F WCI  15
OCONTO         FAIR      19  11  73 SW6       29.93F WCI  10
STURGEON BAY   FAIR      19  12  74 SW12      29.93F WCI   7
GREEN BAY      FAIR      17   9  70 SW9       29.96F WCI   6
MANITOWOC      FAIR      19  12  74 W14       29.98F WCI   6
APPLETON       FAIR      18   9  68 SW8       29.96S WCI   7
CLINTONVILLE   FAIR      18  10  73 SW6       29.95F WCI   9
OSHKOSH        FAIR      20  11  68 VRB7      29.99S WCI  11
$$

WIZ032>034-041-042-053>061-181100-
SOUTHWEST WISCONSIN

CITY           SKY/WX    TMP DP  RH WIND       PRES   REMARKS
LA CROSSE      FAIR      19  11  70 S10       30.05F WCI   7
SPARTA         FAIR      20  14  77 CALM      30.05S
VIROQUA        FAIR      18  13  82 SW13      30.04S WCI   4
BOSCOBEL       FAIR      19  10  68 SW8       30.12F WCI   9
PRAIRIE DU CHI FAIR      18   9  67 CALM      30.13F
PLATTEVILLE    FAIR      19  12  74 SW12      30.12F WCI   6
$$

WIZ056-057-062-063-064-067-068-181100-
SOUTH CENTRAL WISCONSIN

CITY           SKY/WX    TMP DP  RH WIND       PRES   REMARKS
REEDSBURG      FAIR      19  11  70 SW8       30.05F WCI   9
BARABOO/DELLS  FAIR      19  11  70 SW13      30.03S WCI   7
LONE ROCK      NOT AVBL
MINERAL POINT  FAIR      19  14  79 SW10      30.08F WCI   8
MADISON        FAIR      19  10  68 SW6       30.07F WCI  11
MIDDLETON      FAIR      21  12  68 W8        30.07F WCI  11
WATERTOWN      FAIR      18  11  75 SW7       30.06F WCI   8
MONROE         FAIR      19  12  73 SW25G31   30.09F WCI   2
JANESVILLE     FAIR      19  10  68 W9        30.12S WCI   9
$$

WIZ051-052-058>065-066-070>072-181100-
SOUTHEAST WISCONSIN

CITY           SKY/WX    TMP DP  RH WIND       PRES   REMARKS
MILWAUKEE      FAIR      21  11  65 W13G20    30.06F WCI   9
WAUKESHA       FAIR      18   9  68 SW10G20   30.07F WCI   6
MILWAUKEE/TIMM FAIR      19   9  63 W17G25    30.06F WCI   4
RACINE         FAIR      19  10  68 W13G22    30.09F WCI   6
BURLINGTON     FAIR      17   9  68 W12G17    30.10F WCI   5
KENOSHA        FAIR      18   9  68 SW13G22   30.09F WCI   5
FOND DU LAC    FAIR      19   8  62 SW7       30.01F WCI  10
SHEBOYGAN      FAIR      20  12  71 W14       29.99F WCI   7
WEST BEND      FAIR      19  10  68 W13G20    30.02S WCI   7
JUNEAU         FAIR      17  10  73 SW13      30.05S WCI   4
$$

LSZ147-162-181100-
LAKE SUPERIOR

STATION/POSITION TIME  TEMP    WIND        PRES    WAVE
                       AIR SEA DIR/SP/G            HT/PER
                 (UTC) (F)     (DEG/KT/KT) (MB)    (FT/S)
DEVILS ISLAND    0900   28     230/ 18/ 22 1010.2F
SAXON HARBOR     0940   28     200/ 13/ 18 1009.1F
$$

LMZ867-665-643>646-181100-
LAKE MICHIGAN

STATION/POSITION TIME  TEMP    WIND        PRES    WAVE
                       AIR SEA DIR/SP/G            HT/PER
                 (UTC) (F)     (DEG/KT/KT) (MB)    (FT/S)
NORTHPORT PIER   0947   21     230/ 18     1012.2F
KEWAUNEE LAKESHO 0930   20     250/  7/ 10 1014.0S
SHEBOYGAN LAKESH 0900   22     240/ 11/ 13 1017.4S
PORT WASHINGTON  0930   21     260/  8/ 14 1018.3F
MILWAUKEE LAKESH 0930   22     250/ 10/ 13   N/A
KENOSHA   LAKESH 0900   20     240/ 13/ 18 1019.6
$$

TC  - TEMPERATURE IN CELSIUS
VSB - VISIBILITY IN STATUTE MILES
WCI - WIND CHILL INDEX
HX  - HEAT INDEX





USA.gov is the U.S. government's official web portal to all federal, state and local government web resources and services.